This demonstration page uses our WeatherBlox Daily Observations layout. Learn more.

Left ArrowRight Arrow

44.8408, -93.29828

Hourly Observations for July 26, 2017

Temp ( °F °C ) Dew Point ( °F °C ) Humidity (%) Winds ( mph kmh ) Pressure ( in mb ) Visibility ( mi km ) Precip ( " mm )
12:53 am 00:53 Cloudy 77 25 73 22.8 88 88 Calm 29.97 1015 8 13 0.00 0.03
1:10 am 01:10 Cloudy with Light Rain 77 25 73 22.8 88 88 S 3 6 29.94 1014 9 14 0.00 0.03
1:27 am 01:27 Cloudy with Light Rain 77 25 74 23.3 90 90 Calm 29.91 1013 10 16 0.00 0.03
1:53 am 01:53 Cloudy 77 25 73 22.8 88 88 NNE 6 9 29.95 1014 9 14 0.00 0.03
2:53 am 02:53 Cloudy with Mist and Fog 76 24.4 73 22.8 91 91 SE 6 9 29.93 1014 4 6 0.00 0.00
3:50 am 03:50 Cloudy with Nearby Thunderstorms 75 24 73 23 94 94 S 12 19 29.91 1013 6 10 0.00 0.00
3:53 am 03:53 Cloudy with Nearby Thunderstorms 75 23.9 73 22.8 94 94 SSE 8 13 29.91 1013 6 10 0.00 0.00
4:18 am 04:18 Cloudy with Strong Thunderstorms 73 22.8 70 21.1 90 90 W 12 19 29.94 1014 3 5 0.21 5.33
4:50 am 04:50 Cloudy with Nearby Thunderstorms 73 23 70 21 89 89 E 7 11 29.94 1014 6 10 0.37 9.40
4:53 am 04:53 Cloudy with Nearby Thunderstorms 73 22.8 70 21.1 90 90 E 6 9 29.97 1015 6 10 0.38 9.65
5:01 am 05:01 Cloudy with Light Rain 73 22.8 70 21.1 90 90 E 6 9 29.91 1013 6 10 0.01 0.25
5:53 am 05:53 Cloudy 73 22.8 70 21.1 90 90 E 7 11 29.94 1014 10 16 0.05 1.27
6:53 am 06:53 Cloudy 73 22.8 69 20.6 87 87 Calm 29.95 1014 10 16 0.00 0.03
7:43 am 07:43 Cloudy 72 22.2 69 20.6 91 91 SSW 7 11 29.97 1015 9 14 0.00 0.00
7:53 am 07:53 Cloudy with Light Rain 72 22.2 68 20 87 87 SSW 7 11 29.99 1016 9 14 0.00 0.03
8:35 am 08:35 Cloudy 72 22.2 68 20 87 87 NNW 6 9 29.97 1015 10 16 0.00 0.03
8:53 am 08:53 Cloudy 72 22.2 68 20 87 87 NNW 6 9 29.99 1016 10 16 0.00 0.03
9:14 am 09:14 Cloudy 73 22.8 69 20.6 87 87 NW 8 13 29.94 1014 10 16 0.00 0.00
9:53 am 09:53 Cloudy 73 22.8 70 21.1 90 90 NW 7 11 29.99 1016 10 16 0.00 0.00
10:24 am 10:24 Cloudy with Light Rain 73 22.8 70 21.1 90 90 W 5 7 30.00 1016 7 11 0.00 0.03
10:40 am 10:40 Cloudy with Light Rain 74 23.3 70 21.1 88 88 W 3 6 29.97 1015 7 11 0.00 0.03
10:50 am 10:50 Cloudy with Light Rain 73 23 70 21 89 89 WNW 3 6 29.97 1015 8 13 0.01 0.25
10:53 am 10:53 Cloudy 74 23.3 70 21.1 88 88 W 5 7 30.00 1016 9 14 0.01 0.25
11:01 am 11:01 Cloudy 74 23.3 70 21.1 88 88 W 6 9 29.97 1015 8 13 0.00 0.00
11:33 am 11:33 Cloudy 75 23.9 70 21.1 84 84 W 5 7 29.97 1015 9 14 0.00 0.00
11:53 am 11:53 Cloudy 75 23.9 70 21.1 84 84 WNW 3 6 30.00 1016 10 16 0.00 0.00
12:53 pm 12:53 Mostly Cloudy 78 25.6 70 21.1 76 76 WNW 5 7 29.98 1015 10 16 0.00 0.00
1:53 pm 13:53 Mostly Cloudy 82 27.8 68 20 63 63 NNW 8 13 29.97 1015 10 16 0.00 0.00
2:53 pm 14:53 Mostly Cloudy 81 27.2 66 18.9 61 61 NNW 10 17 29.97 1015 10 16 0.00 0.00
3:53 pm 15:53 Partly Cloudy 84 28.9 61 16.1 46 46 WNW 8 13 29.97 1015 10 16 0.00 0.00
4:53 pm 16:53 Mostly Sunny 84 28.9 60 15.6 44 44 NW 13 20 29.96 1015 10 16 0.00 0.00
5:53 pm 17:53 Mostly Sunny 84 28.9 62 16.7 48 48 NNW 10 17 29.96 1014 10 16 0.00 0.00
6:53 pm 18:53 Mostly Sunny 82 27.8 60 15.6 47 47 NW 10 17 29.96 1014 10 16 0.00 0.00
7:53 pm 19:53 Mostly Sunny 80 26.7 60 15.6 51 51 N 9 15 29.97 1015 10 16 0.00 0.00
8:53 pm 20:53 Mostly Clear 77 25 60 15.6 56 56 N 7 11 29.98 1015 10 16 0.00 0.00
9:53 pm 21:53 Mostly Clear 77 25 60 15.6 56 56 N 3 6 30.00 1016 10 16 0.00 0.00
10:53 pm 22:53 Mostly Clear 75 23.9 62 16.7 64 64 Calm 30.01 1016 10 16 0.00 0.00
11:53 pm 23:53 Mostly Clear 71 21.7 63 17.2 76 76 WNW 3 6 30.01 1016 10 16 0.00 0.00

Powered by AerisWeather